Location: Spring Creek
(38.2870°N, 100.2160°W)
Time: 13:16:44
(UTC+00:00)

ERS-2 - Pass Details

Date: 08 May 2021
Orbit: 491 x 496 km, 98.5° (Epoch: 22 June)

Event Time Altitude Azimuth Distance (km) Brightness Sun altitude
Rises 02:31:21 0° 5° (N) 2,579 6.1 -10.1°
Reaches altitude 10° 02:33:29 10° 359° (N) 1,692 5.3 -10.5°
Maximum altitude 02:36:56 42° 288° (WNW) 712 3.5 -11.0°
Drops below altitude 10° 02:40:21 10° 216° (SW) 1,678 4.8 -11.6°
Sets 02:42:28 0° 209° (SSW) 2,555 5.7 -11.9°
